Location: Dammartin
(48.9032°N, 1.6195°E)
Time: 12:59:35
(UTC+00:00)

Cosmos 540 Rocket - Pass Details

Date: 03 February 2023
Orbit: 740 x 751 km, 74.1° (Epoch: 26 March)

Event Time Altitude Azimuth Distance (km) Brightness Sun altitude
Rises 18:30:33 0° 335° (NNW) 3,208 7.0 -16.1°
Reaches altitude 10° 18:32:55 10° 335° (NNW) 2,278 6.2 -16.5°
Maximum altitude 18:38:05 80° 250° (WSW) 764 3.5 -17.3°
Drops below altitude 10° 18:43:11 10° 163° (SSE) 2,254 5.8 -18.1°
Sets 18:45:32 0° 163° (SSE) 3,171 6.6 -18.5°
